Terminal Aerodrome Forecast
Issued by NWS Pendleton, OR

Home | Current Version | Previous Version | Text Only | Print | Product List | Glossary On
Versions: 1 2 3 4 5 6 7 8 9 10 11 12 13
000
FTUS46 KPDT 031123
TAFPDT
TAF
KPDT 031123Z 0312/0412 14008KT P6SM SKC
     FM031300 13005KT P6SM FEW250
     FM031800 34007KT P6SM SKC
     FM040000 36009KT P6SM SKC
     FM040600 14006KT P6SM SKC=

USA.gov is the U.S. government's official web portal to all federal, state and local government web resources and services.